Location: Slanting_Bridge
(35.6330°N, 80.9830°W)
Time: 11:25:33
(UTC-04:00)

Amateur Radio Satellites - All Passes

Search period start: 07 July 2015 10:55
Search period end: 08 July 2015 10:55
Location: Slanting_Bridge, 35.6330°N, 80.9830°W

Satellite Date Start Highest point End Downlink Frequencies (MHz)
Time Altitude Azimuth
BUGSAT 1 07 Jul 10:58:42 11:00:29 13° 68° (ENE) 11:02:29 437.445
POLYITAN 1 07 Jul 11:03:16 11:06:38 24° 71° (ENE) 11:10:03 437.675
Cosmos 2499 07 Jul 11:08:39 11:15:36 66° 94° (E) 11:22:41 435.465 / 435.565
PHONESAT 2.4 07 Jul 11:08:46 11:11:57 34° 2° (N) 11:15:09 2401.200-2431.200
ANTELSAT 07 Jul 11:10:22 11:14:38 76° 77° (ENE) 11:18:54 437.575/2403.000
DX 1 07 Jul 11:10:34 11:13:38 19° 94° (E) 11:16:49 434.975-435.025
CINEMA 3 07 Jul 11:10:56 11:14:42 32° 287° (WNW) 11:18:30 145.822/145.860
GONETS M04 07 Jul 11:12:49 11:20:04 27° 291° (WNW) 11:27:00
VELOX 1 07 Jul 11:14:57 11:15:56 11° 90° (E) 11:17:13 145.980
COMPASS 1 07 Jul 11:16:00 11:19:18 22° 289° (WNW) 11:22:30 437.405
HO-68 07 Jul 11:18:41 11:24:58 33° 294° (WNW) 11:31:07 435.675
HUMSAT D 07 Jul 11:19:29 11:23:13 32° 97° (E) 11:27:02 437.325/437.525
TIGRISAT 07 Jul 11:21:17 11:25:34 83° 257° (WSW) 11:29:50 435.000
ZACube-1 07 Jul 11:26:10 11:30:27 81° 283° (WNW) 11:34:48 437.345
UKube-1 07 Jul 11:26:11 11:29:49 27° 96° (E) 11:33:30 .
Oscar 11 07 Jul 11:28:11 11:32:20 43° 286° (WNW) 11:36:27 145.826/435.025
POPSAT HIP 1 07 Jul 11:31:30 11:35:36 50° 75° (ENE) 11:39:43 437.405
QB50P2 07 Jul 11:31:36 11:35:43 52° 75° (ENE) 11:39:52 145.880/145.840
CUBEBUG 2 07 Jul 11:38:05 11:41:58 34° 287° (WNW) 11:45:53 437.445
VERMONT LUNAR 07 Jul 11:43:43 11:46:50 72° 204° (SSW) 11:49:57 437.305
AISAT 07 Jul 12:00:28 12:04:37 41° 98° (E) 12:08:46 437.250
50 SAT 07 Jul 12:01:04 12:04:52 48° 99° (E) 12:08:42 437.505
FUNcube-1 07 Jul 12:01:18 12:05:07 32° 287° (WNW) 12:08:56 145.935
UNISAT 6 07 Jul 12:03:16 12:06:52 25° 265° (W) 12:10:21 437.425
CUBEBUG 1 07 Jul 12:08:35 12:12:11 26° 95° (E) 12:15:49 437.445
QB50P1 07 Jul 12:10:08 12:14:17 52° 260° (W) 12:18:26 145.935-145.965
DELFI C3 07 Jul 12:16:31 12:19:11 17° 290° (WNW) 12:21:42 145.870
NANOSAT C BR1 07 Jul 12:23:19 12:27:16 37° 262° (W) 12:31:11 145.865
UWE-3 07 Jul 12:23:48 12:26:12 14° 291° (WNW) 12:28:24 435.000/436.395/437.385
DUCHIFAT 1 07 Jul 12:29:16 12:33:05 32° 263° (W) 12:36:52 145.980
BUGSAT 1 07 Jul 12:31:32 12:35:37 46° 261° (W) 12:39:40 437.445
POLYITAN 1 07 Jul 12:38:59 12:42:28 24° 265° (W) 12:45:52 437.675
ESTCUBE 1 07 Jul 12:43:54 12:48:28 83° 100° (E) 12:52:58 437.505/2401.250
DX 1 07 Jul 12:46:06 12:49:57 31° 289° (WNW) 12:53:43 434.975-435.025
PHONESAT 2.4 07 Jul 12:46:49 12:50:15 68° 18° (NNE) 12:53:42 2401.200-2431.200
RS-15 07 Jul 12:48:01 12:59:36 61° 247° (WSW) 13:11:28 29.354- 29.394
VELOX 1 07 Jul 12:48:35 12:52:54 55° 286° (WNW) 12:57:11 145.980
HUMSAT D 07 Jul 12:55:52 12:58:46 18° 290° (WNW) 13:01:33 437.325/437.525
SPROUT 07 Jul 12:58:10 13:01:43 26° 95° (E) 13:05:19 437.525
UKube-1 07 Jul 13:02:26 13:05:50 22° 290° (WNW) 13:09:08 .
Cosmos 2499 07 Jul 13:04:51 13:09:33 18° 293° (WNW) 13:13:57 435.465 / 435.565
POPSAT HIP 1 07 Jul 13:10:28 13:11:49 11° 270° (W) 13:12:54 437.405
QB50P2 07 Jul 13:10:57 13:11:59 11° 270° (W) 13:12:44 145.880/145.840
ISS 07 Jul 13:13:08 13:14:43 13° 25° (NNE) 13:16:22 145.825
VERMONT LUNAR 07 Jul 13:22:10 13:23:23 12° 216° (SW) 13:24:29 437.305
TISAT 1 07 Jul 13:26:41 13:30:31 35° 98° (E) 13:34:21 437.305
50 SAT 07 Jul 13:38:04 13:39:07 11° 292° (WNW) 13:39:56 437.505
AISAT 07 Jul 13:38:11 13:40:53 16° 292° (WNW) 13:43:25 437.250
Oscar 19 07 Jul 13:44:30 13:49:26 51° 73° (ENE) 13:54:24 437.125/150
CUBEBUG 1 07 Jul 13:44:58 13:48:27 23° 290° (WNW) 13:51:48 437.445
SWISSCUBE 07 Jul 14:03:18 14:06:04 16° 91° (E) 14:09:02 437.505
ITAMSAT 1 07 Jul 14:04:32 14:08:20 22° 67° (ENE) 14:12:18 435.822/435.867
ITUPSAT 1 07 Jul 14:10:05 14:13:02 17° 92° (E) 14:16:12 437.325
Gurwin Techsat 1B 07 Jul 14:16:47 14:21:17 30° 70° (ENE) 14:25:52 435.225
PHONESAT 2.4 07 Jul 14:25:12 14:28:06 24° 213° (SSW) 14:30:57 2401.200-2431.200
SPROUT 07 Jul 14:34:20 14:37:42 22° 289° (WNW) 14:40:57 437.525
JAS-2 07 Jul 14:39:30 14:40:54 11° 62° (ENE) 14:42:39 435.910
PCSat 07 Jul 14:47:29 14:51:56 28° 109° (ESE) 14:56:32 145.827
ISS 07 Jul 14:48:17 14:51:31 85° 224° (SW) 14:54:45 145.825
YUBILEINY 07 Jul 14:51:13 14:59:54 64° 80° (E) 15:08:37 435.215
TISAT 1 07 Jul 15:03:22 15:06:02 16° 291° (WNW) 15:08:32 437.305
Cosmos 2491 07 Jul 15:09:52 15:18:07 48° 90° (E) 15:26:27 435.465 / 435.565
BEESAT 3 07 Jul 15:17:48 15:20:24 17° 48° (NE) 15:23:06 437.485
BEESAT 07 Jul 15:23:17 15:28:06 76° 284° (WNW) 15:32:52 436.000
Oscar 19 07 Jul 15:25:55 15:29:08 16° 269° (W) 15:32:07 437.125/150
BEESAT 2 07 Jul 15:34:32 15:37:30 19° 50° (NE) 15:40:31 435.950
AO-7 07 Jul 15:38:57 15:46:29 41° 65° (ENE) 15:54:12 29.400- 29.500
SWISSCUBE 07 Jul 15:39:36 15:44:12 46° 287° (WNW) 15:48:45 437.505
HORYU 2 07 Jul 15:41:14 15:44:43 24° 70° (ENE) 15:48:18 437.375
ITAMSAT 1 07 Jul 15:42:40 15:47:35 41° 262° (W) 15:52:31 435.822/435.867
KKS-1 07 Jul 15:43:59 15:47:44 27° 96° (E) 15:51:33 437.445
ITUPSAT 1 07 Jul 15:46:36 15:51:11 43° 287° (WNW) 15:55:42 437.325
Cosmos 2504 07 Jul 15:54:05 15:57:59 15° 66° (ENE) 16:02:33 435.465 / 435.565
Gurwin Techsat 1B 07 Jul 15:56:34 16:01:13 30° 264° (W) 16:05:49 435.225
AIST 1 07 Jul 16:08:05 16:12:29 79° 278° (W) 16:16:54
JUGNU 07 Jul 16:15:24 16:18:48 16° 173° (S) 16:22:15 437.505
JAS-2 07 Jul 16:20:12 16:25:21 75° 258° (WSW) 16:30:47 435.910
STARS 07 Jul 16:27:13 16:31:28 51° 100° (E) 16:35:45 437.465
PCSat 07 Jul 16:30:17 16:35:14 35° 304° (NW) 16:40:11 145.827
O/OREOS (USA 219) 07 Jul 16:35:36 16:38:37 18° 59° (ENE) 16:41:48 437.305
SO-50 07 Jul 16:37:06 16:41:47 86° 119° (ESE) 16:46:40 436.795
YUBILEINY 07 Jul 16:49:25 16:56:08 24° 276° (W) 17:02:29 435.215
BEESAT 3 07 Jul 16:54:46 16:58:34 39° 245° (WSW) 17:02:16 437.485
Cosmos 2491 07 Jul 17:07:23 17:15:15 34° 288° (WNW) 17:22:54 435.465 / 435.565
BEESAT 2 07 Jul 17:11:58 17:15:39 32° 246° (WSW) 17:19:13 435.950
SRMSAT 07 Jul 17:14:42 17:17:20 13° 169° (S) 17:20:02 437.500
AIST 2 07 Jul 17:14:48 17:18:55 54° 58° (ENE) 17:22:57 435.215
HORYU 2 07 Jul 17:17:32 17:21:16 26° 264° (W) 17:24:56 437.375
KKS-1 07 Jul 17:20:44 17:24:16 23° 290° (WNW) 17:27:40 437.445
AO-7 07 Jul 17:31:31 17:39:17 41° 261° (W) 17:47:00 29.400- 29.500
Cubesat XI-IV 07 Jul 17:40:40 17:43:42 16° 65° (ENE) 17:46:58 437.490
Cosmos 2504 07 Jul 17:43:30 17:51:13 88° 264° (W) 17:59:29 435.465 / 435.565
MOZHAYETS 4 07 Jul 18:01:52 18:06:33 84° 283° (WNW) 18:11:11
JUGNU 07 Jul 18:03:25 18:07:06 17° 184° (S) 18:10:47 437.505
STARS 07 Jul 18:05:31 18:07:31 13° 293° (WNW) 18:09:19 437.465
O/OREOS (USA 219) 07 Jul 18:14:01 18:18:15 39° 255° (WSW) 18:22:27 437.305
SO-50 07 Jul 18:20:53 18:23:06 13° 318° (NW) 18:25:08 436.795
CUBESAT XI-V 07 Jul 18:39:22 18:42:25 18° 92° (E) 18:45:37 437.345
CUTE-I 07 Jul 18:42:45 18:48:01 62° 74° (ENE) 18:53:21 437.470
AIST 2 07 Jul 18:55:50 18:57:02 11° 251° (WSW) 18:58:00 435.215
SRMSAT 07 Jul 19:02:03 19:05:47 17° 179° (S) 19:09:32 437.500
Cubesat XI-IV 07 Jul 19:18:03 19:23:21 60° 259° (W) 19:28:40 437.490
STRAND 1 07 Jul 19:21:01 19:24:05 16° 91° (E) 19:27:23 437.568
GONETS M04 07 Jul 19:28:57 19:35:31 24° 68° (ENE) 19:42:25
Cosmos 2504 07 Jul 19:38:56 19:42:41 13° 277° (W) 19:45:52 435.465 / 435.565
DANDE 07 Jul 19:41:28 19:44:05 78° 79° (E) 19:46:43 436.750
GOMX 1 07 Jul 19:47:37 19:50:41 17° 70° (ENE) 19:53:50 467.674
JUGNU 07 Jul 19:53:32 19:55:24 11° 193° (SSW) 19:57:09 437.505
CUSAT 1 07 Jul 19:55:18 19:57:33 25° 264° (W) 19:59:55 437.405
HO-68 07 Jul 19:57:18 20:02:37 24° 63° (ENE) 20:08:10 435.675
DOVE 4 07 Jul 20:14:14 20:17:24 19° 70° (ENE) 20:20:38 437.250
CUBESAT XI-V 07 Jul 20:15:42 20:20:02 38° 287° (WNW) 20:24:18 437.345
CUTE-I 07 Jul 20:25:43 20:28:37 14° 270° (W) 20:31:11 437.470
BRITE-PL 07 Jul 20:27:56 20:33:23 76° 77° (ENE) 20:38:29 437.365/2234.400
COMPASS 1 07 Jul 20:30:14 20:32:01 13° 68° (ENE) 20:34:00 437.405
PRISM 07 Jul 20:33:03 20:37:16 84° 280° (W) 20:41:25 437.425
CINEMA 3 07 Jul 20:35:08 20:36:50 12° 68° (ENE) 20:38:44 145.822/145.860
CUTE 1.7 + AOD 2 07 Jul 20:49:51 20:53:39 35° 73° (ENE) 20:57:32 437.475
SRMSAT 07 Jul 20:51:11 20:54:14 14° 189° (S) 20:57:13 437.500
CANX-2 07 Jul 20:53:35 20:57:34 44° 74° (ENE) 21:01:37 2200.000
STRAND 1 07 Jul 20:58:39 21:03:38 49° 287° (WNW) 21:08:32 437.568
Cosmos 2499 07 Jul 21:03:00 21:08:28 20° 68° (ENE) 21:14:35 435.465 / 435.565
GOMX 1 07 Jul 21:23:36 21:28:34 47° 261° (W) 21:33:12 467.674
GONETS M04 07 Jul 21:24:32 21:33:07 64° 267° (W) 21:41:37
DELFI C3 07 Jul 21:26:29 21:28:30 14° 69° (ENE) 21:30:43 145.870
M-CUBED/EXP-1 PRIME 07 Jul 21:27:35 21:31:01 22° 100° (E) 21:34:43 437.505
SEEDS 07 Jul 21:31:53 21:36:03 87° 258° (WSW) 21:40:16 437.485
AAUSAT CUBESAT 2 07 Jul 21:33:51 21:37:55 64° 76° (ENE) 21:42:03 437.432
UWE-3 07 Jul 21:40:54 21:44:14 24° 71° (ENE) 21:47:38 435.000/436.395/437.385
HO-68 07 Jul 21:42:52 21:49:54 60° 258° (WSW) 21:56:57 435.675
DOVE 4 07 Jul 21:50:27 21:54:58 38° 262° (W) 21:59:15 437.250
COMPASS 1 07 Jul 22:03:21 22:07:20 44° 262° (W) 22:11:20 437.405
DX 1 07 Jul 22:04:46 22:06:34 13° 67° (ENE) 22:08:36 434.975-435.025
CINEMA 3 07 Jul 22:09:20 22:13:43 51° 261° (W) 22:17:56 145.822/145.860
HUMSAT D 07 Jul 22:09:40 22:12:03 16° 69° (ENE) 22:14:36 437.325/437.525
BRITE-PL 07 Jul 22:10:45 22:12:22 11° 271° (W) 22:13:34 437.365/2234.400
UKube-1 07 Jul 22:19:03 22:21:45 17° 68° (ENE) 22:24:36 .
ZACube-1 07 Jul 22:19:18 22:23:22 52° 75° (ENE) 22:27:26 437.345
Oscar 11 07 Jul 22:19:33 22:23:51 84° 260° (W) 22:28:11 145.826/435.025
AUBIESAT-1 07 Jul 22:23:34 22:27:59 83° 107° (ESE) 22:32:39 437.475
CUTE 1.7 + AOD 2 07 Jul 22:27:06 22:29:44 16° 268° (W) 22:32:12 437.475
CANX-2 07 Jul 22:31:53 22:33:47 12° 270° (W) 22:35:28 2200.000
CUBEBUG 2 07 Jul 22:33:06 22:37:20 59° 260° (W) 22:41:29 437.445
50 SAT 07 Jul 22:43:17 22:45:50 18° 70° (ENE) 22:48:30 437.505
FUNcube-1 07 Jul 22:53:44 22:57:52 58° 260° (W) 23:01:58 145.935
Cosmos 2499 07 Jul 22:54:21 23:02:23 74° 266° (W) 23:10:58 435.465 / 435.565
AISAT 07 Jul 22:55:38 22:59:20 27° 71° (ENE) 23:03:05 437.250
DELFI C3 07 Jul 22:59:33 23:03:17 37° 262° (W) 23:07:02 145.870
M-CUBED/EXP-1 PRIME 07 Jul 23:01:53 23:05:49 32° 292° (WNW) 23:09:53 437.505
CUBEBUG 1 07 Jul 23:02:45 23:05:26 16° 69° (ENE) 23:08:17 437.445
ANTELSAT 07 Jul 23:05:45 23:08:57 20° 94° (E) 23:12:21 437.575/2403.000
TIGRISAT 07 Jul 23:16:05 23:19:42 25° 95° (E) 23:23:28 435.000
UWE-3 07 Jul 23:17:19 23:20:44 23° 265° (W) 23:24:01 435.000/436.395/437.385
QB50P2 07 Jul 23:22:36 23:23:18 10° 90° (E) 23:24:17 145.880/145.840
DX 1 07 Jul 23:38:09 23:42:26 52° 260° (W) 23:46:42 434.975-435.025
PCSat 07 Jul 23:39:02 23:41:43 14° 46° (NE) 23:44:38 145.827
ESTCUBE 1 07 Jul 23:40:26 23:44:50 52° 74° (ENE) 23:49:17 437.505/2401.250
VELOX 1 07 Jul 23:42:47 23:47:15 89° 99° (E) 23:51:45 145.980
HUMSAT D 07 Jul 23:43:48 23:47:33 34° 263° (W) 23:51:17 437.325/437.525
SPROUT 07 Jul 23:50:39 23:53:01 15° 68° (ENE) 23:55:33 437.525
UKube-1 07 Jul 23:53:35 23:57:37 37° 262° (W) 00:01:39 .
UNISAT 6 07 Jul 23:56:48 00:01:15 79° 102° (ESE) 00:05:47 437.425
QB50P1 07 Jul 23:58:23 00:02:03 29° 96° (E) 00:05:45 145.935-145.965
NANOSAT C BR1 08 Jul 00:10:51 00:14:49 41° 98° (E) 00:18:48 145.865
DUCHIFAT 1 08 Jul 00:16:24 00:20:26 46° 99° (E) 00:24:29 145.980
TISAT 1 08 Jul 00:16:40 00:19:37 19° 70° (ENE) 00:22:41 437.305
BUGSAT 1 08 Jul 00:16:57 00:20:26 28° 96° (E) 00:23:57 437.445
50 SAT 08 Jul 00:17:03 00:20:18 26° 264° (W) 00:23:30 437.505
POLYITAN 1 08 Jul 00:26:16 00:30:28 67° 101° (E) 00:34:40 437.675
AISAT 08 Jul 00:32:12 00:35:52 24° 265° (W) 00:39:26 437.250
CUBEBUG 1 08 Jul 00:37:19 00:41:30 39° 262° (W) 00:45:40 437.445
ANTELSAT 08 Jul 00:41:50 00:45:48 32° 287° (WNW) 00:49:47 437.575/2403.000
Cosmos 2499 08 Jul 00:52:39 00:54:37 11° 279° (W) 00:55:47 435.465 / 435.565
TIGRISAT 08 Jul 00:52:42 00:56:24 25° 289° (WNW) 01:00:02 435.000
POPSAT HIP 1 08 Jul 00:55:09 00:59:16 54° 285° (WNW) 01:03:21 437.405
QB50P2 08 Jul 00:55:27 00:59:34 52° 285° (WNW) 01:03:40 145.880/145.840
RS-15 08 Jul 00:58:01 01:06:27 29° 105° (ESE) 01:15:27 29.354- 29.394
SWISSCUBE 08 Jul 01:07:54 01:10:13 14° 66° (ENE) 01:12:46 437.505
SO-50 08 Jul 01:11:39 01:16:13 36° 53° (NE) 01:20:42 436.795
ITUPSAT 1 08 Jul 01:14:51 01:17:23 15° 66° (ENE) 01:20:09 437.325
ESTCUBE 1 08 Jul 01:20:07 01:22:05 12° 270° (W) 01:23:47 437.505/2401.250
PCSat 08 Jul 01:20:28 01:25:54 83° 246° (WSW) 01:31:19 145.827
SPROUT 08 Jul 01:24:43 01:28:48 41° 262° (W) 01:32:52 437.525
Cosmos 2491 08 Jul 01:25:09 01:30:46 19° 65° (ENE) 01:36:51 435.465 / 435.565
QB50P1 08 Jul 01:34:40 01:37:45 19° 290° (WNW) 01:40:42 145.935-145.965
NANOSAT C BR1 08 Jul 01:48:00 01:50:20 14° 292° (WNW) 01:52:30 145.865
TISAT 1 08 Jul 01:51:26 01:55:12 30° 263° (W) 01:58:56 437.305
BUGSAT 1 08 Jul 01:52:55 01:55:44 18° 290° (WNW) 01:58:24 437.445
DUCHIFAT 1 08 Jul 01:53:58 01:55:52 13° 292° (WNW) 01:57:35 145.980
YUBILEINY 08 Jul 01:58:24 02:00:59 12° 79° (E) 02:04:21 435.215
Oscar 19 08 Jul 01:59:40 02:03:35 23° 94° (E) 02:07:39 437.125/150
AIST 1 08 Jul 02:19:20 02:22:20 19° 73° (ENE) 02:25:27
BEESAT 08 Jul 02:26:37 02:31:23 88° 74° (ENE) 02:36:11 436.000
Gurwin Techsat 1B 08 Jul 02:37:06 02:39:47 14° 90° (E) 02:42:45 435.225
KKS-1 08 Jul 02:40:02 02:43:03 19° 69° (ENE) 02:46:11 437.445
SWISSCUBE 08 Jul 02:42:56 02:47:38 56° 260° (W) 02:52:22 437.505
ITUPSAT 1 08 Jul 02:50:12 02:54:53 52° 260° (W) 02:59:35 437.325
SO-50 08 Jul 02:52:36 02:56:36 24° 249° (WSW) 03:00:23 436.795
RS-15 08 Jul 03:07:09 03:18:01 69° 304° (NW) 03:29:11 29.354- 29.394
Cosmos 2491 08 Jul 03:20:01 03:28:47 78° 265° (W) 03:37:26 435.465 / 435.565
STARS 08 Jul 03:21:24 03:25:15 31° 72° (ENE) 03:29:10 437.465
JAS-2 08 Jul 03:31:41 03:36:27 20° 91° (E) 03:41:51 435.910
Oscar 19 08 Jul 03:38:21 03:43:03 36° 289° (WNW) 03:47:42 437.125/150
AO-7 08 Jul 03:46:33 03:49:50 13° 88° (E) 03:53:52 29.400- 29.500
YUBILEINY 08 Jul 03:47:59 03:56:39 80° 94° (E) 04:05:22 435.215
AIST 1 08 Jul 03:56:17 04:00:04 29° 269° (W) 04:03:44
ITAMSAT 1 08 Jul 03:58:08 04:03:23 90° 103° (ESE) 04:08:35 435.822/435.867
Gurwin Techsat 1B 08 Jul 04:14:59 04:20:14 59° 286° (WNW) 04:25:26 435.225
KKS-1 08 Jul 04:15:22 04:19:27 35° 263° (W) 04:23:31 437.445
STARS 08 Jul 04:58:32 05:01:46 19° 266° (W) 05:04:53 437.465
MOZHAYETS 4 08 Jul 05:00:39 05:05:10 64° 76° (ENE) 05:09:44
HORYU 2 08 Jul 05:10:40 05:15:08 73° 102° (ESE) 05:19:37 437.375
JAS-2 08 Jul 05:15:02 05:21:56 70° 285° (WNW) 05:29:31 435.910
Cosmos 2491 08 Jul 05:21:20 05:24:26 12° 281° (W) 05:26:44 435.465 / 435.565
RS-15 08 Jul 05:25:14 05:33:12 21° 332° (NNW) 05:41:01 29.354- 29.394
AO-7 08 Jul 05:35:34 05:43:59 83° 107° (ESE) 05:52:20 29.400- 29.500
CUBESAT XI-V 08 Jul 05:41:01 05:43:10 13° 67° (ENE) 05:45:34 437.345
YUBILEINY 08 Jul 05:48:42 05:54:39 19° 295° (WNW) 06:00:07 435.215
ISS 08 Jul 05:50:54 05:52:04 12° 128° (SE) 05:53:22 145.825
VERMONT LUNAR 08 Jul 05:52:44 05:55:37 37° 151° (SSE) 05:58:31 437.305
Cosmos 2504 08 Jul 06:10:58 06:17:52 76° 95° (E) 06:24:48 435.465 / 435.565
STRAND 1 08 Jul 06:34:11 06:37:37 19° 67° (ENE) 06:41:14 437.568
BEESAT 3 08 Jul 06:43:57 06:47:59 74° 118° (ESE) 06:52:05 437.485
O/OREOS (USA 219) 08 Jul 06:44:17 06:48:14 32° 105° (ESE) 06:52:15 437.305
BEESAT 2 08 Jul 07:01:57 07:06:03 89° 288° (WNW) 07:10:12 435.950
CUTE-I 08 Jul 07:03:17 07:07:59 31° 96° (E) 07:12:43 437.470
JAS-2 08 Jul 07:03:57 07:06:14 11° 298° (WNW) 07:08:03 435.910
DANDE 08 Jul 07:06:23 07:10:18 17° 94° (E) 07:14:01 436.750
PHONESAT 2.4 08 Jul 07:08:48 07:11:45 27° 148° (SSE) 07:14:44 2401.200-2431.200
AIST 2 08 Jul 07:10:23 07:13:46 24° 112° (ESE) 07:17:16 435.215
CUSAT 1 08 Jul 07:15:28 07:20:24 26° 96° (E) 07:24:33 437.405
CUBESAT XI-V 08 Jul 07:15:33 07:20:10 56° 260° (W) 07:24:50 437.345
PRISM 08 Jul 07:20:00 07:23:59 45° 74° (ENE) 07:28:01 437.425
ISS 08 Jul 07:24:59 07:28:09 52° 321° (NW) 07:31:20 145.825
VERMONT LUNAR 08 Jul 07:29:28 07:32:28 46° 346° (NNW) 07:35:29 437.305
AO-7 08 Jul 07:30:05 07:35:57 21° 303° (WNW) 07:41:25 29.400- 29.500
Cubesat XI-IV 08 Jul 07:38:17 07:43:40 71° 102° (ESE) 07:48:59 437.490
RS-15 08 Jul 07:47:03 07:52:01 13° 8° (N) 07:57:15 29.354- 29.394
Cosmos 2504 08 Jul 08:07:07 08:11:00 15° 294° (WNW) 08:14:28 435.465 / 435.565
STRAND 1 08 Jul 08:11:34 08:16:29 46° 261° (W) 08:21:27 437.568
M-CUBED/EXP-1 PRIME 08 Jul 08:15:08 08:16:38 13° 63° (ENE) 08:18:18 437.505
O/OREOS (USA 219) 08 Jul 08:24:24 08:27:45 20° 300° (WNW) 08:31:00 437.305
BEESAT 3 08 Jul 08:25:21 08:26:30 11° 316° (NW) 08:27:27 437.485
GONETS M04 08 Jul 08:26:23 08:33:37 31° 86° (E) 08:41:03
BRITE-PL 08 Jul 08:36:54 08:40:20 25° 95° (E) 08:43:48 437.365/2234.400
CUTE-I 08 Jul 08:43:25 08:48:00 29° 291° (WNW) 08:52:27 437.470
PHONESAT 2.4 08 Jul 08:46:13 08:49:37 62° 342° (NNW) 08:53:02 2401.200-2431.200
DANDE 08 Jul 08:46:26 08:53:28 63° 279° (W) 08:58:47 436.750
AIST 2 08 Jul 08:48:32 08:52:14 28° 307° (NW) 08:55:56 435.215
CUSAT 1 08 Jul 08:57:25 09:02:57 33° 281° (W) 09:07:15 437.405
PRISM 08 Jul 08:57:58 08:59:43 12° 269° (W) 09:01:14 437.425
VERMONT LUNAR 08 Jul 09:06:53 09:09:43 31° 3° (N) 09:12:34 437.305
AUBIESAT-1 08 Jul 09:09:24 09:12:40 60° 71° (ENE) 09:16:07 437.475
HO-68 08 Jul 09:14:09 09:20:19 32° 96° (E) 09:26:37 435.675
SEEDS 08 Jul 09:19:56 09:22:58 19° 93° (E) 09:26:08 437.485
Cubesat XI-IV 08 Jul 09:20:32 09:23:14 14° 296° (WNW) 09:25:37 437.490
AAUSAT CUBESAT 2 08 Jul 09:21:28 09:23:15 13° 91° (E) 09:25:17 437.432
GOMX 1 08 Jul 09:28:28 09:32:35 60° 100° (E) 09:36:43 467.674
Cosmos 2499 08 Jul 09:39:57 09:42:42 13° 82° (E) 09:45:59 435.465 / 435.565
M-CUBED/EXP-1 PRIME 08 Jul 09:48:19 09:51:14 28° 259° (W) 09:54:13 437.505
COMPASS 1 08 Jul 09:49:36 09:53:27 34° 97° (E) 09:57:19 437.405
DOVE 4 08 Jul 09:52:01 09:56:10 68° 101° (E) 10:00:23 437.250
RS-15 08 Jul 09:59:53 10:09:51 32° 41° (NE) 10:20:27 29.354- 29.394
ANTELSAT 08 Jul 10:03:50 10:05:25 12° 67° (ENE) 10:07:14 437.575/2403.000
CINEMA 3 08 Jul 10:06:48 10:10:48 42° 99° (E) 10:14:56 145.822/145.860
Oscar 11 08 Jul 10:10:30 10:13:49 22° 94° (E) 10:17:15 145.826/435.025
ZACube-1 08 Jul 10:12:20 10:14:07 13° 91° (E) 10:16:10 437.345
CUTE 1.7 + AOD 2 08 Jul 10:13:09 10:17:27 75° 283° (WNW) 10:21:44 437.475
TIGRISAT 08 Jul 10:13:24 10:15:47 15° 69° (ENE) 10:18:21 435.000
BRITE-PL 08 Jul 10:15:37 10:18:48 21° 290° (WNW) 10:21:50 437.365/2234.400
CANX-2 08 Jul 10:17:15 10:21:29 59° 284° (WNW) 10:25:43 2200.000
GONETS M04 08 Jul 10:21:39 10:30:08 50° 283° (WNW) 10:38:33
PHONESAT 2.4 08 Jul 10:24:46 10:27:56 34° 359° (N) 10:31:08 2401.200-2431.200
CUBEBUG 2 08 Jul 10:26:54 10:30:46 32° 97° (E) 10:34:44 437.445
DELFI C3 08 Jul 10:41:22 10:45:03 33° 97° (E) 10:48:46 145.870
VERMONT LUNAR 08 Jul 10:43:47 10:46:52 68° 18° (NNE) 10:50:00 437.305
FUNcube-1 08 Jul 10:44:54 10:48:41 30° 97° (E) 10:52:33 145.935
QB50P1 08 Jul 10:49:18 10:51:51 16° 69° (ENE) 10:54:34 145.935-145.965
